Other Surface Observations
Issued by NWS

Home | Current Version | Previous Version | Text Only | Print | Product List | Glossary On
Versions: 1 2 3 4 5 6 7 8 9 10 11 12 13 14 15 16 17 18 19 20 21 22 23 24 25 26 27 28 29 30 31 32 33 34 35 36 37 38 39 40 41 42 43 44 45 46 47 48 49 50
000
SXUS52 KTAE 230018
OSOTAE
OSOTAE
North Florida/South Alabama/Southwest Georgia Weather Roundup
National Weather Service Tallahassee Florida
800 PM EDT WED OCT 22 2014

Note: "fair" indicates few or no clouds below 12,000 feet with no
significant weather and/or obstructions to visibility.

!FLZ017-115-028-034-025-230100
...North Florida...

CITY           SKY/WX    TMP DP  RH WIND       PRES   REMARKS
TALLAHASSEE    CLEAR     68  47  46 NE3       30.01R
APALACHICOLA   CLEAR     68  56  65 N7        30.00R
PERRY          CLEAR     63  52  67 N3        30.01R
CROSS CITY       N/A     64  54  69 NE3       29.99R
JACKSONVILLE   CLEAR     59  55  87 NE3       30.03R
$$

!FLZ112-006-005-002-011-230100
...Florida Panhandle...

CITY           SKY/WX    TMP DP  RH WIND       PRES   REMARKS
MARIANNA       NOT AVBL
BONIFAY        NOT AVBL
PANAMA CITY NW FAIR      61  52  72 N3        30.01R
TYNDALL AFB    CLEAR     67  55  64 N3        30.02R
TYND DRONE APT FAIR      66  55  66 MISG      30.00R
DE FUNIAK SPR  FAIR      64  45  50 N6        30.04R
EGLIN AFB      PTCLDY    66  46  49 N7        30.02R
DESTIN         CLEAR     71  49  45 N8        30.02R
HURLBURT       CLEAR     65  44  46 N6        30.02R
CRESTVIEW      CLEAR     65  47  52 N5        30.05R
PENSACOLA      CLEAR     68  48  48 N6        30.02R
$$

!ALZ063-066-230100
...South Alabama...

CITY           SKY/WX    TMP DP  RH WIND       PRES   REMARKS
DOTHAN         CLEAR     60  45  57 NE5       30.08R
OZARK CAIRNS   CLEAR     65  46  49 N7        30.05R
FT RUCKER HELI CLEAR     58  48  69 CALM      30.04R
RUCKER HELI 3  FAIR      60  48  62 N2        30.08R
RUCKER HELI 2  FAIR      62  47  57 N8        30.05R
FLORALA APT    CLEAR     59  48  67 N3        30.07R
ANDALUSIA      CLEAR     68  43  40 NE3       30.06R
TROY           CLEAR     59  47  64 CALM      30.07S
EUFALA         FAIR      54  49  83 CALM      30.06R
MOBILE         PTCLDY    65  51  60 N6        30.06R
$$

!GAZ120>161-230100
...Southwest and South Central Georgia...

CITY           SKY/WX    TMP DP  RH WIND       PRES   REMARKS
THOMASVILLE    FAIR      63  46  55 N5        30.04R
BAINBRIDGE     CLEAR     66  46  48 N7        30.03S
MOODY AFB      CLEAR     61  46  57 NE5       30.03R
VALDOSTA       CLEAR     58  46  64 N3        30.02R
MOULTRIE       CLEAR     63  48  59 N7        30.04R
BLAKELY        CLEAR     63  48  59 CALM        N/A
ALBANY         CLEAR     59  48  67 N3        30.07R
TIFTON         FAIR      62  45  53 CALM      30.05R
FITZGERALD     FAIR      58  46  66 N5        30.07R
CORDELE        FAIR      58  49  72 CALM      30.07R
AMERICUS       FAIR      55  50  82 CALM      30.08S
HOMERVILLE     FAIR      61  52  72 CALM      30.03S
$$

!GMZ750-755-770-775-230100
...Coastal and Buoy Obs...

STATION/POSITION TIME  TEMP    WIND        PRES    VSBY  WAVE
                       AIR SEA DIR/SP/G                  HT/PER
                 (UTC) (F)     (DEG/KT/KT) (MB)    (MI)  (FT/S)
KEATON BEACH     0000   69      10/  3/  4 1016.1R
CEDAR KEY        0000   71      20/  6/  7 1015.8R
C TOWER          0000   74      20/  7/  7 1015.7R
APALACHICOLA BUO 0000   74 81   40/ 14/ 17 1015.0S         3/ 5
PANAMA CITY BUOY NOT AVBL
MOBILE BUOY      NOT AVBL
ORANGE BCH AL BU 0000   76 78   30/ 14/ 16 1016.0R         2/ 4
$$



USA.gov is the U.S. government's official web portal to all federal, state and local government web resources and services.